CAPE
2 6 2 0 0 0 0 0 0 0 0 0 0 0 0 9 0 0 0 0 0 0 0 9 85 35 14 5 10 9 8 1 6 9 3 15 8 10 19 9 1 2 3 3
6 3 0 1 0 0 0 0 0 0 0 0 0 0 0 0 0 0 0 0 0 0 0 5 83 135 111 95 52 9 8 2 4 5 7 3 3 11 12 8 0 0 2 3
3 0 0 0 0 0 0 2 0 0 0 0 0 0 0 0 0 0 0 0 0 0 0 30 3 110 304 195 116 14 3 0 1 5 10 3 4 10 10 7 0 0 2 4
17 2 0 1 1 0 1 0 0 0 1 0 0 0 0 0 0 0 0 0 0 0 0 0 16 1 229 310 198 56 33 2 0 9 7 3 2 4 0 0 0 0 2 4
0 0 2 3 0 0 0 0 0 0 5 10 0 4 0 0 0 0 0 0 0 0 0 0 6 1 99 275 262 143 60 21 9 1 3 3 1 0 0 0 0 0 1 2
2 0 0 0 0 0 0 0 3 5 14 20 0 7 0 0 0 0 0 0 0 0 0 0 2 115 29 154 241 212 161 108 53 21 8 2 0 0 1 2 2 1 0 2
4 1 1 3 7 0 2 24 19 25 38 6 0 8 0 0 0 0 0 0 0 0 0 0 0 83 69 38 195 195 130 96 94 58 31 23 1 0 0 0 1 1 1 2
15 1 0 5 4 4 10 4 7 6 9 3 0 1 0 0 0 0 0 0 0 0 0 0 0 0 62 31 111 147 137 92 66 74 39 40 26 1 0 0 0 0 0 0
23 11 0 0 0 6 27 14 2 9 4 11 1 0 0 2 0 0 0 0 0 0 0 0 0 0 14 56 5 59 118 134 61 47 26 23 33 10 0 0 0 0 0 0
9 21 5 7 5 13 19 1 11 21 0 0 1 1 22 2 0 0 0 0 0 0 0 0 0 0 0 2 39 8 65 103 115 26 3 16 12 16 21 2 0 0 0 0
3 2 2 9 12 3 27 10 0 3 1 10 1 0 3 5 3 2 0 0 0 0 0 0 0 0 0 0 27 6 10 29 44 33 3 3 16 6 4 4 1 0 0 0
15 8 8 1 2 0 1 0 0 3 1 2 5 1 5 4 4 1 0 0 0 0 0 0 0 1 1 0 13 34 2 6 7 4 0 0 3 8 8 3 0 0 0 0
13 18 12 1 9 6 14 0 0 12 56 2 8 10 3 4 8 1 1 1 0 0 0 0 0 0 0 0 1 0 1 3 0 0 0 0 2 6 9 4 2 2 0 0
7 1 14 22 19 13 18 17 3 7 27 18 14 8 7 1 2 1 0 0 0 0 0 0 0 0 0 0 0 0 1 1 1 1 0 0 0 1 0 1 3 2 0 0
17 19 7 11 9 4 8 7 6 8 0 28 9 4 10 9 14 0 0 0 0 0 0 0 0 0 0 0 0 0 0 0 0 1 0 0 0 0 1 2 3 0 0 0
4 9 15 7 8 1 2 4 5 7 6 7 11 8 9 9 8 9 8 0 0 0 0 0 0 0 1 0 0 0 0 0 0 0 0 0 0 0 0 0 0 0 0 0
6 12 6 5 3 8 0 9 17 8 5 14 4 15 11 12 11 8 11 3 1 0 0 0 0 0 0 1 2 1 1 0 0 0 0 0 0 0 0 0 0 1 0 0
5 6 5 3 1 1 3 9 19 14 8 8 12 8 12 22 0 0 0 0 0 0 0 0 0 0 0 0 0 0 0 0 0 0 0 0 0 0 0 0 0 0 0 0
0 3 2 3 4 3 1 7 7 3 8 11 7 8 15 5 0 0 0 0 0 0 0 0 0 0 0 0 0 0 0 0 0 0 0 0 0 0 0 0 1 0 0 0
0 0 1 1 0 0 1 0 0 0 5 5 0 0 0 0 0 0 0 0 0 0 0 0 0 0 0 0 0 0 0 0 0 0 0 0 0 0 0 0 0 0 0 1
0 0 1 2 1 0 0 0 0 1 0 0 0 0 0 0 0 0 0 0 0 0 0 0 0 0 0 0 0 0 0 0 0 0 0 0 0 0 0 0 0 0 0 0
0 0 0 1 0 0 0 0 0 0 0 0 0 0 0 0 0 0 0 0 0 0 0 0 0 0 0 0 0 0 0 0 0 1 1 1 1 1 0 0 0 0 0 0
0 0 0 0 0 0 0 0 0 0 0 0 0 0 0 0 0 0 0 0 0 0 0 0 0 0 0 0 0 0 0 0 0 1 1 1 0 0 0 0 0 0 0 0
0 0 0 0 0 0 0 0 0 0 0 0 0 0 0 0 0 0 0 0 0 0 0 0 0 0 0 0 0 0 0 0 0 0 0 1 2 3 2 2 0 1 1 0
0 1 0 0 0 0 0 0 0 0 0 0 0 0 0 0 0 0 0 0 0 0 0 0 0 0 0 0 0 0 0 0 0 0 0 1 2 2 4 4 3 1 1 1
0 0 0 0 0 0 0 0 0 0 0 0 0 0 0 0 0 0 0 0 0 0 0 0 0 0 0 0 0 0 0 0 0 0 0 1 2 2 2 3 4 1 0 1
CIN
-0 -0 -0 -0 -0 -0 -0 -0 -0 -0 -0 -0 -0 -0 -0 -0 -0 -0 -0 -0 -0 -0 -17 -70 -171 -159 -157 -175 -0 -0 -0 -3 -0 -0 -0 -0 -0 -0 -0 -0 -0 -0 -0 -0
-0 -0 -0 -0 -0 -0 -0 -0 -0 -0 -0 -0 -0 -0 -0 -0 -0 -0 -0 -0 -0 -0 -0 -128 -147 -130 -133 -156 -154 -0 -0 -0 -0 -0 -0 -0 -0 -0 -0 -0 -0 -0 -0 -0
-0 -0 -0 -0 -0 -0 -0 -0 -0 -0 -0 -0 -0 -0 -0 -0 -0 -0 -0 -0 -0 -0 -0 -82 -53 -131 -99 -120 -155 -240 -0 -0 -0 -0 -0 -0 -0 -0 -0 -0 -0 -0 -0 -0
-0 -0 -0 -0 -0 -0 -0 -0 -0 -0 -0 -0 -0 -0 -0 -0 -0 -0 -0 -0 -0 -0 -0 -0 -81 -35 -95 -154 -161 -182 -194 -0 -0 -0 -0 -0 -0 -0 -0 -0 -0 -0 -0 -0
-0 -0 -0 -0 -0 -0 -0 -0 -0 -0 -0 -0 -0 -0 -0 -0 -0 -0 -0 -0 -0 -0 -0 -0 -76 -21 -139 -121 -137 -186 -176 -169 -219 -0 -0 -0 -0 -0 -0 -0 -0 -0 -0 -0
-0 -0 -0 -0 -0 -0 -0 -0 -0 -0 -0 -0 -0 -0 -0 -0 -0 -0 -0 -0 -0 -0 -0 -0 -72 -149 -191 -111 -86 -141 -149 -183 -164 -189 -49 -0 -0 -0 -0 -0 -0 -0 -0 -0
-0 -0 -0 -0 -0 -0 -0 -0 -0 -0 -0 -0 -0 -0 -0 -0 -0 -0 -0 -0 -0 -0 -0 -0 -0 -110 -182 -158 -131 -156 -179 -203 -206 -215 -217 -242 -263 -0 -0 -0 -0 -0 -0 -0
-0 -0 -0 -0 -0 -0 -0 -0 -0 -0 -0 -0 -1 -0 -0 -0 -0 -0 -0 -0 -0 -0 -0 -0 -0 -14 -143 -230 -219 -198 -235 -259 -253 -256 -279 -250 -211 -0 -0 -0 -0 -0 -0 -0
-0 -0 -0 -0 -0 -0 -0 -0 -0 -0 -0 -0 -0 -0 -0 -99 -0 -0 -0 -0 -0 -0 -0 -0 -0 -0 -144 -176 -289 -268 -281 -294 -308 -305 -290 -246 -226 -194 -0 -0 -0 -0 -0 -0
-0 -0 -0 -0 -0 -0 -0 -0 -0 -0 -0 -0 -0 -3 -0 -0 -0 -0 -0 -0 -0 -0 -0 -0 -0 -0 -0 -38 -224 -250 -265 -285 -305 -341 -177 -245 -261 -224 -151 -0 -0 -0 -0 -0
-0 -0 -0 -0 -0 -0 -0 -0 -0 -0 -0 -0 -0 -0 -0 -0 -0 -0 -0 -0 -0 -0 -0 -0 -0 -0 -0 -0 -184 -223 -284 -263 -273 -309 -235 -164 -281 -267 -0 -0 -0 -0 -0 -0
-0 -0 -0 -0 -0 -0 -0 -0 -0 -0 -0 -0 -0 -0 -0 -0 -0 -0 -0 -0 -0 -0 -0 -0 -0 -0 -0 -0 -150 -175 -176 -262 -295 -345 -14 -0 -14 -13 -0 -0 -0 -0 -0 -0
-0 -0 -0 -0 -0 -0 -0 -0 -0 -0 -0 -0 -0 -0 -0 -0 -0 -0 -0 -0 -0 -0 -0 -0 -0 -0 -0 -0 -0 -0 -42 -101 -0 -0 -0 -0 -0 -0 -0 -0 -0 -0 -0 -0
-0 -0 -0 -0 -0 -0 -0 -0 -0 -0 -0 -0 -0 -0 -0 -0 -0 -0 -0 -0 -0 -0 -0 -0 -0 -0 -0 -0 -0 -0 -0 -0 -0 -0 -0 -0 -0 -0 -0 -0 -0 -0 -0 -0
-0 -0 -0 -0 -0 -0 -0 -0 -0 -0 -0 -0 -0 -0 -0 -0 -0 -0 -0 -0 -0 -0 -0 -0 -0 -0 -0 -0 -0 -0 -0 -0 -0 -0 -0 -0 -0 -0 -0 -0 -0 -0 -0 -0
-0 -0 -0 -0 -0 -0 -0 -0 -0 -0 -0 -0 -0 -0 -0 -0 -0 -0 -0 -0 -0 -0 -0 -0 -0 -0 -0 -0 -0 -0 -0 -0 -0 -0 -0 -0 -0 -0 -0 -0 -0 -0 -0 -0
-0 -0 -0 -0 -0 -0 -0 -0 -0 -0 -0 -0 -0 -0 -0 -0 -0 -0 -0 -0 -0 -0 -0 -0 -0 -0 -0 -0 -0 -0 -0 -0 -0 -0 -0 -0 -0 -0 -0 -0 -0 -0 -0 -0
-0 -0 -0 -0 -0 -0 -0 -0 -0 -0 -0 -0 -0 -0 -0 -0 -0 -0 -0 -0 -0 -0 -0 -0 -0 -0 -0 -0 -0 -0 -0 -0 -0 -0 -0 -0 -0 -0 -0 -0 -0 -0 -0 -0
-0 -0 -0 -0 -0 -0 -0 -0 -0 -0 -0 -0 -0 -0 -0 -0 -0 -0 -0 -0 -0 -0 -0 -0 -0 -0 -0 -0 -0 -0 -0 -0 -0 -0 -0 -0 -0 -0 -0 -0 -0 -0 -0 -0
-0 -0 -0 -0 -0 -0 -0 -0 -0 -0 -0 -0 -0 -0 -0 -0 -0 -0 -0 -0 -0 -0 -0 -0 -0 -0 -0 -0 -0 -0 -0 -0 -0 -0 -0 -0 -0 -0 -0 -0 -0 -0 -0 -0
-0 -0 -0 -0 -0 -0 -0 -0 -0 -0 -0 -0 -0 -0 -0 -0 -0 -0 -0 -0 -0 -0 -0 -0 -0 -0 -0 -0 -0 -0 -0 -0 -0 -0 -0 -0 -0 -0 -0 -0 -0 -0 -0 -0
-0 -0 -0 -0 -0 -0 -0 -0 -0 -0 -0 -0 -0 -0 -0 -0 -0 -0 -0 -0 -0 -0 -0 -0 -0 -0 -0 -0 -0 -0 -0 -0 -0 -0 -0 -0 -0 -0 -0 -0 -0 -0 -0 -0
-0 -0 -0 -0 -0 -0 -0 -0 -0 -0 -0 -0 -0 -0 -0 -0 -0 -0 -0 -0 -0 -0 -0 -0 -0 -0 -0 -0 -0 -0 -0 -0 -0 -0 -0 -0 -0 -0 -0 -0 -0 -0 -0 -0
-0 -0 -0 -0 -0 -0 -0 -0 -0 -0 -0 -0 -0 -0 -0 -0 -0 -0 -0 -0 -0 -0 -0 -0 -0 -0 -0 -0 -0 -0 -0 -0 -0 -0 -0 -0 -0 -0 -0 -0 -0 -0 -0 -0
-0 -0 -0 -0 -0 -0 -0 -0 -0 -0 -0 -0 -0 -0 -0 -0 -0 -0 -0 -0 -0 -0 -0 -0 -0 -0 -0 -0 -0 -0 -0 -0 -0 -0 -0 -0 -0 -0 -0 -0 -0 -0 -0 -0
-0 -0 -0 -0 -0 -0 -0 -0 -0 -0 -0 -0 -0 -0 -0 -0 -0 -0 -0 -0 -0 -0 -0 -0 -0 -0 -0 -0 -0 -0 -0 -0 -0 -0 -0 -0 -0 -0 -0 -0 -0 -0 -0 -0
Wind_Speed
3 4 8 7 10 9 3 6 10 6 7 10 16 18 18 12 13 18 19 17 16 17 16 15 19 19 18 20 22 22 19 16 12 10 12 11 12 11 11 10 13 13 12 13
3 8 11 9 8 10 13 14 16 16 16 14 17 23 19 22 17 18 17 20 21 18 17 16 19 20 24 23 22 21 22 20 15 12 12 11 11 11 11 9 11 14 14 14
7 5 2 6 7 11 13 14 13 14 11 15 17 27 25 26 23 21 22 22 21 21 19 16 18 22 24 22 22 20 21 21 20 19 12 10 10 8 10 11 11 13 15 14
8 7 9 12 14 11 14 7 13 13 9 7 0 12 14 13 20 22 22 23 23 22 22 17 18 20 22 23 20 21 19 19 20 21 16 18 13 12 11 12 11 11 16 14
3 5 7 12 13 9 7 8 9 12 14 13 19 10 7 14 19 23 18 20 23 25 24 24 19 19 20 18 19 20 20 19 21 21 20 16 16 12 9 10 14 14 13 15
17 8 8 16 10 12 2 7 12 9 9 9 18 16 14 17 19 22 18 21 21 22 24 24 19 18 16 16 17 18 21 23 22 22 22 21 20 17 12 13 12 11 10 11
5 13 10 10 8 10 12 5 4 7 8 9 7 14 20 18 19 24 22 19 23 19 20 23 21 19 18 20 21 19 21 22 22 22 21 22 21 19 18 16 13 14 11 11
5 8 7 9 9 6 15 15 6 7 6 8 6 11 15 19 21 21 23 20 21 15 17 21 22 20 19 19 20 20 21 21 21 21 23 21 21 14 15 17 13 12 12 13
6 6 0 6 7 4 4 12 6 3 5 7 10 16 12 11 4 9 8 8 10 10 10 19 20 19 18 17 19 21 22 21 20 22 18 19 18 20 18 19 16 12 13 11
4 10 2 1 2 6 2 3 3 4 5 9 7 7 5 12 13 11 11 10 10 6 5 5 9 17 15 16 15 17 18 20 21 19 17 18 19 19 18 16 17 17 14 15
4 5 1 3 6 9 5 5 7 4 6 4 5 4 2 6 10 9 9 12 11 10 9 8 7 6 10 11 12 16 18 20 18 17 17 17 17 17 16 15 16 17 16 17
2 5 7 5 1 5 11 7 12 5 4 5 7 8 7 8 8 8 12 8 10 12 12 12 11 12 11 8 8 13 14 16 16 15 15 16 15 16 16 18 17 16 17 15
5 3 7 3 3 2 5 11 11 5 3 11 4 2 5 10 11 8 7 9 12 15 16 14 15 15 14 13 12 6 6 12 13 14 13 14 14 15 17 17 15 14 15 15
5 3 4 6 4 6 4 6 16 12 5 4 7 3 5 8 8 10 12 15 17 17 16 16 16 15 14 13 13 12 11 10 4 9 11 11 11 14 14 14 14 14 14 14
5 4 2 2 6 5 12 14 14 18 17 5 6 7 8 8 7 12 13 14 16 18 17 16 15 15 14 13 12 11 11 11 10 8 5 4 5 10 12 12 12 12 12 14
8 3 4 3 3 8 11 16 15 9 6 6 3 10 5 5 6 11 13 15 16 16 15 16 16 16 15 14 13 11 11 12 10 10 10 8 8 8 7 5 10 11 12 13
5 6 3 2 6 3 4 12 9 6 11 5 7 5 6 9 13 13 11 13 14 14 14 15 14 14 13 14 13 13 11 10 9 10 10 10 9 8 6 6 6 6 4 4
8 8 2 4 6 4 1 6 7 5 9 9 6 5 5 7 8 11 12 11 10 10 11 12 12 12 13 12 12 10 10 10 10 10 10 9 10 8 6 6 6 5 4 4
9 4 3 4 5 3 1 3 4 5 8 7 5 6 7 10 8 10 13 11 10 10 9 9 9 8 9 11 13 12 12 12 12 13 11 10 10 10 8 6 6 5 4 5
4 3 3 0 1 1 1 3 5 2 5 6 3 3 1 2 6 4 10 9 8 8 8 8 9 9 11 12 12 11 11 11 12 12 12 11 10 9 11 10 9 4 3 5
3 2 1 2 1 3 0 1 6 2 4 6 4 2 3 2 3 3 4 5 6 5 7 7 8 9 9 10 9 10 10 13 12 10 9 9 9 8 6 6 5 5 6 6
3 1 1 3 2 2 2 4 3 3 3 2 1 1 1 2 3 2 4 4 4 5 5 6 6 7 8 9 8 9 12 12 11 11 11 10 10 8 7 8 6 3 4 4
2 3 2 5 0 1 1 2 2 2 2 1 1 1 1 1 2 3 3 5 4 4 5 5 5 5 7 9 9 10 11 11 11 9 9 10 10 10 8 7 6 5 4 4
4 3 3 4 2 6 1 1 0 2 2 1 2 3 2 2 2 2 3 4 3 3 4 4 6 8 8 8 8 7 9 10 9 9 10 9 9 11 9 7 6 6 5 4
1 6 4 7 6 4 5 5 4 4 3 3 2 2 1 2 2 2 2 1 1 2 2 3 4 5 7 8 8 8 9 10 10 9 10 10 8 10 9 7 7 6 5 5
8 8 7 5 3 1 3 7 2 5 4 3 1 2 1 1 2 2 3 1 1 2 1 1 3 5 6 7 7 9 9 9 9 9 8 8 8 9 9 9 8 11 10 13
Wind_Direction
84 254 241 267 243 270 311 296 284 287 309 299 262 266 260 238 262 248 253 259 256 252 242 206 199 193 188 201 206 205 191 192 186 189 191 194 201 200 204 205 202 199 198 192
173 249 280 240 249 251 260 263 264 272 258 269 281 272 259 257 254 258 255 257 259 256 244 211 202 196 199 195 201 201 203 190 188 191 196 203 199 204 207 203 202 204 200 196
228 258 353 193 229 236 245 257 258 259 296 272 281 278 264 253 254 247 253 258 252 248 249 225 211 204 206 201 200 197 198 200 195 196 194 196 195 202 203 202 206 204 203 197
259 269 262 240 255 253 275 238 254 267 265 260 78 282 279 248 245 242 242 247 250 243 243 244 221 214 209 207 201 201 198 199 201 198 192 191 191 197 203 204 208 200 202 199
301 237 223 229 233 205 257 262 258 266 257 267 252 261 267 239 247 248 240 237 245 242 239 237 223 212 216 207 203 201 200 199 202 200 199 194 202 209 195 202 200 200 201 202
258 259 257 244 254 232 217 231 256 263 248 235 241 221 273 245 243 264 249 236 239 244 241 235 216 209 209 202 203 201 201 205 202 203 202 200 205 204 198 195 195 195 197 199
253 251 236 237 253 236 214 181 216 219 209 251 258 225 240 276 243 246 263 250 238 241 239 233 220 207 205 200 202 201 205 209 205 203 204 207 207 205 202 199 199 193 196 197
318 310 175 161 216 233 203 202 212 245 244 287 235 239 240 247 262 264 269 273 256 266 260 236 225 210 210 202 197 199 202 209 207 205 208 208 207 208 206 207 202 203 200 199
298 254 356 220 221 201 141 210 211 289 217 258 252 261 275 351 204 315 326 308 276 266 290 246 226 217 214 206 204 200 202 205 207 211 207 212 211 212 208 210 206 205 203 199
288 288 194 112 106 166 241 115 171 164 273 271 255 323 308 342 323 330 338 359 331 332 333 305 286 227 220 212 207 212 213 210 208 206 212 212 210 215 214 207 203 204 203 200
252 231 244 176 207 183 170 198 222 248 228 280 295 265 240 322 322 351 355 16 353 9 19 11 353 328 238 221 207 206 211 215 213 208 209 215 215 213 216 214 209 207 204 202
287 296 285 291 294 298 226 224 206 214 234 252 304 284 354 16 22 17 28 13 22 38 34 31 36 34 35 19 238 213 214 215 215 212 208 213 215 213 213 216 210 208 209 205
2 265 299 244 174 175 220 228 231 228 254 230 249 298 360 26 12 32 44 48 43 41 38 39 41 38 30 26 22 358 240 226 223 214 207 210 214 215 216 219 217 213 210 209
293 249 289 312 344 321 311 328 240 208 250 303 252 110 13 11 13 8 29 37 39 38 34 33 34 34 25 21 21 24 23 11 300 220 206 208 212 215 217 221 215 213 213 210
347 280 268 229 80 57 36 17 6 213 220 294 38 79 17 350 6 22 30 36 38 30 23 21 19 22 24 17 10 14 20 20 16 28 23 336 258 223 216 218 215 210 211 220
338 297 304 240 173 61 41 15 21 31 8 74 48 70 347 352 22 24 24 29 29 23 18 14 11 6 7 10 1 1 5 16 20 36 33 22 15 22 358 287 223 208 211 216
307 311 313 278 351 234 5 357 359 17 21 346 46 35 348 18 29 22 7 29 25 11 7 12 14 13 1 354 346 355 3 5 18 24 20 15 2 13 8 358 355 351 317 309
296 312 305 302 313 53 19 324 333 11 34 23 51 33 13 39 51 38 27 32 23 12 10 17 11 11 6 356 349 356 7 11 10 18 13 6 349 344 350 9 358 343 332 288
223 290 312 331 23 113 181 360 346 353 35 11 28 32 21 28 24 38 20 20 21 14 10 20 11 12 11 7 354 6 11 11 10 2 358 349 345 337 333 0 357 349 324 303
157 257 258 267 75 76 151 228 186 286 59 312 18 62 5 261 59 10 3 7 24 26 16 12 10 15 23 9 359 10 9 13 11 351 338 334 338 337 338 349 345 334 277 293
344 2 70 5 132 265 153 304 141 236 144 206 249 305 350 65 37 27 20 34 39 28 16 10 19 25 14 3 355 13 7 10 345 336 329 332 336 331 322 324 330 314 309 287
296 303 157 152 204 234 55 137 244 66 81 152 221 273 29 64 61 49 45 51 41 30 22 18 31 28 16 11 9 18 20 341 333 335 344 346 346 343 339 337 326 285 260 264
266 235 298 220 22 25 301 326 348 349 102 119 223 7 14 66 36 25 13 32 29 23 17 15 25 21 21 14 18 13 353 340 332 342 349 348 347 350 345 338 333 321 303 294
232 178 245 317 195 231 247 174 35 39 73 26 28 31 47 78 29 37 17 14 7 1 6 357 13 21 14 7 11 8 346 337 334 346 351 349 350 349 346 338 336 333 331 317
224 154 201 259 253 274 230 211 174 143 120 90 65 45 47 358 344 339 354 347 342 330 340 8 22 15 4 353 358 358 353 348 349 346 351 356 351 351 345 344 332 323 310 299
184 184 186 221 186 141 160 168 150 164 164 128 48 305 87 351 327 337 293 285 273 238 245 42 12 7 5 357 352 352 348 345 339 352 357 356 350 350 349 344 337 335 319 332